Regional Weather Roundup
Issued by NWS

Home | Current Version | Previous Version | Graphics & Text | Print | Product List | Glossary On
Versions: 1 2 3 4 5 6 7 8 9 10 11 12 13 14 15 16 17 18 19 20 21 22 23 24 25 26 27 28 29 30 31 32 33 34 35 36 37 38 39 40 41 42 43 44 45 46 47 48 49 50
000
ASUS43 KMKX 231811
RWRWI

WISCONSIN REGIONAL WEATHER ROUNDUP
NATIONAL WEATHER SERVICE MILWAUKEE/SULLIVAN WI
1200 PM CST THU FEB 23 2017

NOTE: "FAIR" INDICATES FEW OR NO CLOUDS BELOW 12,000 FEET WITH NO
SIGNIFICANT WEATHER AND/OR OBSTRUCTIONS TO VISIBILITY.

WIZ001-002-006>008-014>016-023>028-231900-
NORTHWEST WISCONSIN

CITY           SKY/WX    TMP DP  RH WIND       PRES   REMARKS
SUPERIOR ARPT  CLOUDY    29  24  80 NW8       29.99S WCI  21
6HR MIN TEMP:  25; 6HR MAX TEMP:  29;

ASHLAND        CLOUDY    32  25  75 NW5       29.95R WCI  27
6HR MIN TEMP:  27; 6HR MAX TEMP:  33;

HAYWARD        CLOUDY    32  23  69 VRB5      29.93S WCI  27
6HR MIN TEMP:  30; 6HR MAX TEMP:  33;

SIREN          CLOUDY    30  22  72 N8        29.96S WCI  23
6HR MIN TEMP:  28; 6HR MAX TEMP:  30;

CUMBERLAND     PTSUNNY   34  27  75 N7        29.92F WCI  28
RICE LAKE      MOSUNNY   36  27  69 CALM      29.93F
6HR MIN TEMP:  32; 6HR MAX TEMP:  36;

CHETEK         PTSUNNY   36  26  68 N3        29.91F
6HR MIN TEMP:  32; 6HR MAX TEMP:  37;

LADYSMITH      PTSUNNY   37  27  68 NE7       29.92F WCI  31
6HR MIN TEMP:  33; 6HR MAX TEMP:  37;

EAU CLAIRE     CLOUDY    39  28  64 N9        29.89F WCI  33
6HR MIN TEMP:  35; 6HR MAX TEMP:  40;

MENOMONIE      CLOUDY    39  28  64 N7        29.91F WCI  34
6HR MIN TEMP:  35; 6HR MAX TEMP:  39;

NEW RICHMOND   MOSUNNY   35  25  67 NE8       29.93R WCI  28
6HR MIN TEMP:  31; 6HR MAX TEMP:  36;

OSCEOLA        PTSUNNY   35  26  68 N9        29.96S WCI  28
6HR MIN TEMP:  31; 6HR MAX TEMP:  37;

$$

WIZ003>005-009-010-017-018-231900-
NORTH CENTRAL WISCONSIN

CITY           SKY/WX    TMP DP  RH WIND       PRES   REMARKS
MANITOWISH WTR CLOUDY    30  27  88 NW6       29.89S WCI  24
6HR MIN TEMP:  29; 6HR MAX TEMP:  30;

ARBOR VITAE    CLOUDY    32  29  88 CALM        N/A  FOG
6HR MIN TEMP:  32; 6HR MAX TEMP:  33;

WOODRUFF       CLOUDY    32  29  88 CALM        N/A  FOG
6HR MIN TEMP:  32; 6HR MAX TEMP:  33;

RHINELANDER    CLOUDY    35  26  69 N6        29.89R WCI  30
6HR MIN TEMP:  31; 6HR MAX TEMP:  35; 6HR PCP: TRACE;

EAGLE RIVER    CLOUDY    32  23  68 N6        29.88S WCI  26
6HR MIN TEMP:  28; 6HR MAX TEMP:  32;

LAND O LAKES   CLOUDY    32  26  77 NW5       29.89R WCI  27
6HR MIN TEMP:  29; 6HR MAX TEMP:  32; 6HR PCP:  0.01;

PHILLIPS       CLOUDY    32  26  78 NE5       29.90S WCI  27
6HR MIN TEMP:  30; 6HR MAX TEMP:  32;

TOMAHAWK       PTSUNNY   36  25  66 N7        29.89S WCI  30
6HR MIN TEMP:  31; 6HR MAX TEMP:  36;

MEDFORD        PTSUNNY   38  29  71 N6        29.87F WCI  33
6HR MIN TEMP:  32; 6HR MAX TEMP:  38;

MERRILL        NOT AVBL
$$

WIZ029-030-035-036-043>047-231900-
CENTRAL WISCONSIN

CITY           SKY/WX    TMP DP  RH WIND       PRES   REMARKS
WAUSAU         MOSUNNY   39  26  59 VRB7      29.87F WCI  34
6HR MIN TEMP:  33; 6HR MAX TEMP:  39;

MOSINEE        MOSUNNY   37  30  75 NE12      29.89S WCI  30
MARSHFIELD     SUNNY     41  29  62 NE9       29.86F
6HR MIN TEMP:  32; 6HR MAX TEMP:  41;

STEVENS POINT  SUNNY     39  27  62 N8        29.87F WCI  33
6HR MIN TEMP:  32; 6HR MAX TEMP:  39;

WAUPACA        MOSUNNY   43  30  60 NE9       29.88S
6HR MIN TEMP:  38; 6HR MAX TEMP:  46;

WAUTOMA        PTSUNNY   44  31  60 N10       29.86F
6HR MIN TEMP:  38; 6HR MAX TEMP:  44;

WISC RAPIDS    MOSUNNY   43  30  60 N10       29.87F
6HR MIN TEMP:  33; 6HR MAX TEMP:  43;

CAMP DOUGLAS   PTSUNNY   43  30  61 NE9       29.85F
$$

WIZ011>013-019>022-031-037>040-048>050-231900-
NORTHEAST WISCONSIN

CITY           SKY/WX    TMP DP  RH WIND       PRES   REMARKS
ANTIGO         MOSUNNY   35  26  68 N7        29.88R WCI  30
6HR MIN TEMP:  30; 6HR MAX TEMP:  36;

SHAWANO        MOSUNNY   43  31  63 N8        29.89S
6HR MIN TEMP:  34; 6HR MAX TEMP:  43;

OCONTO         MOSUNNY   40  27  60 N10       29.89S WCI  33
6HR MIN TEMP:  35; 6HR MAX TEMP:  40;

STURGEON BAY   CLOUDY    36  29  75 N12       29.89S WCI  28
6HR MIN TEMP:  35; 6HR MAX TEMP:  36;

GREEN BAY      CLOUDY    40  32  73 N12       29.88F WCI  33
6HR MIN TEMP:  38; 6HR MAX TEMP:  40;

MANITOWOC      CLOUDY    39  31  72 N14       29.86S WCI  31
6HR MIN TEMP:  38; 6HR MAX TEMP:  40;

APPLETON       PTSUNNY   39  27  60 NE13      29.85S WCI  32
CLINTONVILLE   PTSUNNY   41  28  60 N6        29.88F
OSHKOSH        CLOUDY    39  30  70 NE13      29.86S WCI  31
6HR MIN TEMP:  39; 6HR MAX TEMP:  43;

$$

WIZ032>034-041-042-053>061-231900-
SOUTHWEST WISCONSIN

CITY           SKY/WX    TMP DP  RH WIND       PRES   REMARKS
LA CROSSE      CLOUDY    43  31  62 NE10      29.87S
6HR MIN TEMP:  40; 6HR MAX TEMP:  44;

SPARTA         PTSUNNY   42  32  65 NE9       29.87F
6HR MIN TEMP:  37; 6HR MAX TEMP:  42;

VIROQUA        MOSUNNY   42  32  69 N17       29.82F
6HR MIN TEMP:  36; 6HR MAX TEMP:  43;

BOSCOBEL       CLOUDY    46  32  58 NE8G20    29.80F
6HR MIN TEMP:  42; 6HR MAX TEMP:  46;

PRAIRIE DU CHI CLOUDY    45  31  59 E6        29.81R
6HR MIN TEMP:  41; 6HR MAX TEMP:  45;

PLATTEVILLE    CLOUDY    44  37  76 NE8       29.83R
6HR MIN TEMP:  38; 6HR MAX TEMP:  45;

$$

WIZ056-057-062-063-064-067-068-231900-
SOUTH CENTRAL WISCONSIN

CITY           SKY/WX    TMP DP  RH WIND       PRES   REMARKS
REEDSBURG      CLOUDY    43  32  66 N10       29.83F
6HR MIN TEMP:  38; 6HR MAX TEMP:  43;

BARABOO/DELLS  CLOUDY    43  31  64 N8        29.83F
6HR MIN TEMP:  38; 6HR MAX TEMP:  43;

LONE ROCK      CLOUDY    45  33  63 NE17      29.79F
6HR MIN TEMP:  41; 6HR MAX TEMP:  45;

MINERAL POINT  CLOUDY    43  36  75 NE10G16   29.80R
MADISON        CLOUDY    43  35  73 NE8       29.86R
6HR MIN TEMP:  40; 6HR MAX TEMP:  45;

MIDDLETON      CLOUDY    44  37  77 NE10      29.86R
6HR MIN TEMP:  41; 6HR MAX TEMP:  45;

WATERTOWN      CLOUDY    42  36  79 N5        29.85R
6HR MIN TEMP:  40; 6HR MAX TEMP:  45;

MONROE         CLOUDY    41  36  81 NE12G24   29.80F
JANESVILLE     CLOUDY    45  39  81 NE13      29.81F
$$

WIZ051-052-058>065-066-070>072-231900-
SOUTHEAST WISCONSIN

CITY           SKY/WX    TMP DP  RH WIND       PRES   REMARKS
MILWAUKEE      CLOUDY    41  33  73 NE10      29.88R
6HR MIN TEMP:  41; 6HR MAX TEMP:  48;

WAUKESHA       CLOUDY    41  36  81 NE7       29.85R
MILWAUKEE/TIMM CLOUDY    41  30  65 NE9       29.86R
RACINE         CLOUDY    41  33  73 NE12      29.89R
6HR MIN TEMP:  40; 6HR MAX TEMP:  47;

KENOSHA        CLOUDY    42  35  76 NE12      29.87R
6HR MIN TEMP:  40; 6HR MAX TEMP:  47;

FOND DU LAC    CLOUDY    42  32  67 NE17      29.86R
6HR MIN TEMP:  39; 6HR MAX TEMP:  43;

SHEBOYGAN      CLOUDY    41  34  76 NE13      29.84S
6HR MIN TEMP:  39; 6HR MAX TEMP:  44;

WEST BEND      CLOUDY    43  34  70 NE8       29.84R
JUNEAU         PTSUNNY   41  33  72 N10G17    29.85S
6HR MIN TEMP:  39; 6HR MAX TEMP:  43;

$$

LSZ147-162-231900-
LAKE SUPERIOR

STATION/POSITION TIME  TEMP    WIND        PRES    WAVE
                       AIR SEA DIR/SP/G            HT/PER
                 (UTC) (F)     (DEG/KT/KT) (MB)    (FT/S)
DEVILS ISLAND    1800   30     310/ 11/ 13 1014.8S
PORT WING        1740   30     300/  9/ 13 1014.9R
SAXON HARBOR     1740   32     310/  7/  9 1013.9R
$$

LMZ867-665-643>646-231900-
LAKE MICHIGAN

STATION/POSITION TIME  TEMP    WIND        PRES    WAVE
                       AIR SEA DIR/SP/G            HT/PER
                 (UTC) (F)     (DEG/KT/KT) (MB)    (FT/S)
CHAMBERS ISLAND  1740   39     350/  6/  8 1012.2R
NORTHPORT PIER   1740   34     320/  9/ 12 1012.2R
SISTER BAY       1705   35     360/ 17/ 20   N/A
KEWAUNEE LAKESHO 1742   38     3



USA.gov is the U.S. government's official web portal to all federal, state and local government web resources and services.